Location: Csohesd
(46.2500°N, 22.6167°E)
Time: 01:07:55
(UTC+00:00)

N. Korean satellite - Visible Passes

Search period start: 29 November 2022 00:00
Search period end: 09 December 2022 00:00
Orbit: 422 x 454 km, 97.3° (Epoch: 28 November)

Date Brightness Start Highest point End Pass type
(mag) Time Alt. Az. Time Alt. Az. Time Alt. Az.
29 Nov 7.2 03:38:04 10° NNE 03:41:27 52° E 03:44:47 10° S visible
29 Nov 8.4 05:12:14 10° NW 05:13:32 12° WNW 05:14:48 10° W visible
29 Nov 9.3 15:42:54 10° SSW 15:45:33 21° W 15:48:14 10° NW visible
30 Nov 9.3 03:00:11 10° NE 03:02:33 17° E 03:04:54 10° SE visible
30 Nov 7.2 04:32:06 10° N 04:35:09 30° WNW 04:38:09 10° SW visible
01 Dec 6.4 03:53:04 10° NNE 03:56:31 84° ESE 03:59:54 10° SSW visible
01 Dec 9.7 15:58:43 10° SW 16:00:40 15° W 16:02:38 10° NW visible
02 Dec 8.7 03:14:43 10° NE 03:17:38 26° E 03:20:31 10° SSE visible
02 Dec 7.7 04:47:24 10° NNW 04:50:01 21° WNW 04:52:37 10° WSW visible
02 Dec 7.9 15:18:26 10° S 15:21:39 42° W 15:24:55 10° NNW visible
03 Dec 6.3 04:08:00 10° N 04:11:24 61° WNW 04:14:44 10° SSW visible
04 Dec 7.8 03:29:17 10° NNE 03:32:31 39° E 03:35:42 10° S visible
04 Dec 8.1 05:02:45 10° NNW 05:04:42 15° WNW 05:06:37 10° W visible
04 Dec 8.8 15:33:33 10° SSW 15:36:30 28° W 15:39:29 10° NW visible
05 Dec 9.7 02:51:37 10° ENE 02:53:23 13° E 02:55:08 10° ESE visible
05 Dec 6.8 04:22:53 10° N 04:26:05 39° WNW 04:29:14 10° SW visible
06 Dec 6.8 03:43:50 10° NNE 03:47:13 62° E 03:50:33 10° S visible
06 Dec 8.5 05:18:56 10° WNW 05:19:12 10° WNW 05:19:29 10° WNW visible
06 Dec 9.5 15:48:44 10° SW 15:51:13 19° W 15:53:43 10° NW visible
07 Dec 9.1 03:05:32 10° NE 03:08:06 20° E 03:10:37 10° SE visible
07 Dec 7.3 04:37:42 10° N 04:40:35 26° WNW 04:43:26 10° SW visible
08 Dec 6.2 03:58:19 10° N 04:01:44 84° WNW 04:05:05 10° SSW visible
08 Dec 9.8 16:04:10 10° WSW 16:05:48 13° W 16:07:27 10° WNW visible
